Regional Weather Roundup
Issued by NWS

Home | Current Version | Previous Version | Graphics & Text | Print | Product List | Glossary On
Versions: 1 2 3 4 5 6 7 8 9 10 11 12 13 14 15 16 17 18 19 20 21 22 23 24 25 26 27 28
000
ASUS45 KTFX 230710
RWRMT
MONTANA REGIONAL WEATHER ROUNDUP
NATIONAL WEATHER SERVICE GREAT FALLS MT
100 AM MDT TUE AUG 23 2016

NOTE: "FAIR" INDICATES FEW OR NO CLOUDS BELOW 12000 FEET WITH NO
SIGNIFICANT WEATHER AND/OR OBSTRUCTIONS TO VISIBILITY.

MTZ001>007-043-230800-
WEST OF THE DIVIDE

CITY           SKY/WX    TMP DP  RH WIND       PRES   REMARKS
KALISPELL      CLOUDY    53  36  52 SE7       29.95S
MISSOULA       CLEAR     51  31  46 NW3       30.03R
BUTTE          PTCLDY    57  23  26 CALM      30.05R
MULLAN PASS    MOCLDY    45  28  51 VRB5      30.09R
DEER LODGE       N/A     50  27  40 CALM      30.06R
EUREKA           N/A     55  36  47 CALM        N/A
HAMILTON         N/A     54  32  43 CALM      30.05R
LIBBY            N/A     52  34  50 SE5       29.97S
PLAINS           N/A     50  32  50 CALM      30.00R
$$

MTZ008-052>055-230800-
SOUTHWEST MONTANA

CITY           SKY/WX    TMP DP  RH WIND       PRES   REMARKS
BOZEMAN        MOCLDY    56  34  43 CALM      29.98R
DILLON         CLOUDY    59  21  23 S9        30.01R
W YELLOWSTONE  CLOUDY    57   9  14 SW12G17   30.06R
ENNIS          PTCLDY    52  16  24 E6        30.05R
THREE FORKS      N/A     59 -28   2 CALM      29.98R
TWIN BRIDGES     N/A     61  18  19 SW5       29.99R
$$

MTZ009-010-012-014-046-048-049-054-230800-
EAST SLOPES AND CENTRAL MONTANA

CITY           SKY/WX    TMP DP  RH WIND       PRES   REMARKS
CUT BANK       CLOUDY    55  31  39 W13       29.88R
GREAT FALLS    CLOUDY    56  27  32 W12       29.93R
MALMSTROM AFB  CLOUDY    61  29  29 MISG      29.92R
HELENA         CLOUDY    63  22  20 NW14      29.97R
CHOTEAU          N/A     59  28  31 W15G23    29.94R
CONRAD           N/A     46  36  68 SW7       29.93R
$$

MTZ011-013-016-021-045-047-050-051-230800-
NORTH CENTRAL MONTANA

CITY           SKY/WX    TMP DP  RH WIND       PRES   REMARKS
HAVRE          CLOUDY    59  30  33 W8        29.83R
LEWISTOWN      CLOUDY    59  31  34 W5        29.92R
N BAR RANCH      N/A     57  27  30 NW5       29.94R
CHINOOK          N/A     57  34  41 SW6       29.83R
$$

MTZ017>020-022>027-061-062-230800-
NORTHEAST MONTANA

CITY           SKY/WX    TMP DP  RH WIND       PRES   REMARKS
GLASGOW        CLOUDY    65  32  29 W16G23    29.77R
JORDAN           N/A     68  27  21 NW10      29.79R
SIDNEY         PTCLDY    63  34  33 NW9       29.66R
WOLF POINT     MOCLDY    71  43  36 NW16      29.72R
SCOBEY           N/A     59  44  57 CALM      29.75R
$$

MTZ028>42-056>058-230800-
SOUTHCENTRAL AND SOUTHEAST MONTANA

CITY           SKY/WX    TMP DP  RH WIND       PRES   REMARKS
BAKER          CLEAR     67  37  33 NW8       29.72R
BILLINGS       CLOUDY    62  28  27 NW7       29.88R
LIVINGSTON     CLEAR     60  23  24 W9        29.96R
MILES CITY     CLEAR     71  25  17 N13       29.75R
FORSYTH          N/A     70  28  21 W5        29.78R
LAUREL           N/A     59  30  33 CALM      29.90R
ROUNDUP          N/A     61  26  26 N2        29.81R
$$

REGIONAL REPORTS...DAKOTAS

CITY           SKY/WX    TMP DP  RH WIND       PRES   REMARKS
WILLISTON      CLOUDY    62  39  42 CALM      29.64R
MINOT          CLEAR     65  64  97 N5        29.59F
DICKINSON      CLEAR     59  52  77 NE7       29.60F
CROSBY           N/A     59  46  63 NW8       29.66S
BISMARCK       CLEAR     68  62  81 S3        29.58S
GRAND FORKS    CLOUDY    74  68  81 S9        29.67R
FARGO          CLEAR     73  65  75 SE16G26   29.67F
BUFFALO SD       N/A     71  49  45 N5        29.60S
RAPID CITY     CLEAR     57  47  69 E5        29.70S
$$

REGIONAL REPORTS...WYOMING/IDAHO/WASHINGTON

CITY           SKY/WX    TMP DP  RH WIND       PRES   REMARKS
GILLETTE       CLEAR     64  39  39 S10       29.75S
SHERIDAN       CLEAR     70  29  21 NW20G26   29.87R
BUFFALO WY     CLEAR     69  28  21 N31G47    29.87R
CODY           CLEAR     66  27  22 W12       29.95R
YELLOWSTONE LA   N/A     42  17  36 CALM      30.14R
IDAHO FALLS    CLEAR     60  27  28 SW15      29.99R
SALMON         CLEAR     55  28  35 S3        30.00R
BOISE          CLEAR     67  27  22 W5        29.96R
SPOKANE        MOCLDY    58  34  40 W5        30.02R
$$

REGIONAL REPORTS...ALBERTA

CITY           SKY/WX    TMP DP  RH WIND       PRES   REMARKS
EDMONTON       LGT RAIN  55  54  94 N14G22    29.74R
CALGARY        LGT RAIN  50  43  76 NW24G33   29.83R
LETHBRIDGE     CLOUDY    55  43  62 NW17G25   29.86R
MEDICINE HAT   LGT RAIN  54  46  76 W29G39    29.75S
WATERTON GATE    N/A     57  32  38 W17G28      N/A
CARDSTON         N/A     57  32  38 W9G17       N/A
MILK RIVER       N/A     54  36  50 N7          N/A
ONEFOUR          N/A     54  39  58 NW20        N/A
$$

REGIONAL REPORTS...SASKATCHEWAN

CITY           SKY/WX    TMP DP  RH WIND       PRES   REMARKS
SWIFT CURRENT  CLEAR     48  43  81 W9        29.74F
REGINA         PTCLDY    48  45  87 W7        29.69R
SASKATOON      PTCLDY    55  52  88 W21       29.65R
CYPRESS HILLS    N/A     48  37  66 W9          N/A
VAL MARIE        N/A     59  28  31 W10         N/A
ROCKGLEN         N/A     63  34  34 W10         N/A
ASSINIBOIA       N/A     54  54 100 NW3         N/A
$$




USA.gov is the U.S. government's official web portal to all federal, state and local government web resources and services.